Location: Casteau
(50.5142°N, 4.0161°E)
Time: 07:12:27
(UTC+00:00)

Transit 2A - Pass Details

Date: 02 August 2021
Orbit: 594 x 964 km, 66.7° (Epoch: 24 September)

Event Time Altitude Azimuth Distance (km) Brightness Sun altitude
Rises 15:02:28 0° 317° (NW) 3,244 9.5 39.7°
Reaches altitude 10° 15:04:57 10° 308° (NW) 2,373 9.0 39.3°
Maximum altitude 15:09:50 34° 245° (WSW) 1,382 10.4 38.6°
Drops below altitude 10° 15:15:06 10° 183° (S) 2,571 9.1 37.8°
Sets 15:17:55 0° 175° (S) 3,553 9.6 37.4°
